Location: Newark
(48.6461°N, 4.3644°W)
Time: 03:35:36
(UTC+00:00)

Tiros 1 - All Passes

Search period start: 28 January 2020 00:00
Search period end: 07 February 2020 00:00
Orbit: 630 x 664 km, 48.4° (Epoch: 27 January)

Date Brightness Start Highest point End Pass type
(mag) Time Alt. Az. Time Alt. Az. Time Alt. Az.
28 Jan - 10:35:59 10° SSE 10:37:47 12° SE 10:39:35 10° ESE daylight
28 Jan - 12:14:41 10° SW 12:19:05 42° SSE 12:23:32 10° E daylight
28 Jan - 13:56:21 10° W 14:01:03 84° S 14:05:50 10° E daylight
28 Jan - 15:38:33 10° W 15:43:17 78° SSW 15:48:04 10° ESE daylight
28 Jan - 17:20:53 10° W 17:25:10 34° SSW 17:29:29 10° SSE daylight
29 Jan - 10:59:39 10° SSW 11:03:19 23° SE 11:07:02 10° E daylight
29 Jan - 12:40:21 10° WSW 12:44:59 64° SSE 12:49:41 10° E daylight
29 Jan - 14:22:25 10° W 14:27:09 89° SSW 14:31:56 10° E daylight
29 Jan - 16:04:38 10° W 16:09:17 57° SSW 16:13:58 10° SE daylight
29 Jan - 17:47:28 10° W 17:50:51 20° SW 17:54:16 10° S visible
30 Jan - 09:46:31 10° SSE 09:47:48 11° SE 09:49:05 10° ESE daylight
30 Jan - 11:24:42 10° SW 11:29:03 40° SSE 11:33:27 10° E daylight
30 Jan - 13:06:19 10° WSW 13:11:01 83° S 13:15:46 10° E daylight
30 Jan - 14:48:30 10° W 14:53:14 79° S 14:58:00 10° ESE daylight
30 Jan - 16:30:49 10° W 16:35:09 36° SSW 16:39:30 10° SE daylight
31 Jan - 10:09:46 10° SSW 10:13:19 22° SE 10:16:54 10° E daylight
31 Jan - 11:50:20 10° WSW 11:54:56 62° SSE 11:59:36 10° E daylight
31 Jan - 13:32:23 10° W 13:37:05 89° S 13:41:52 10° E daylight
31 Jan - 15:14:35 10° W 15:19:14 59° SSW 15:23:55 10° ESE daylight
31 Jan - 16:57:20 10° W 17:00:51 21° SW 17:04:22 10° S daylight
01 Feb - 08:57:39 10° SE 08:57:49 10° SE 08:57:59 10° SE daylight
01 Feb - 10:34:44 10° SW 10:39:02 38° SSE 10:43:22 10° E daylight
01 Feb - 12:16:16 10° WSW 12:20:57 81° S 12:25:41 10° E daylight
01 Feb - 13:58:28 10° W 14:03:11 81° S 14:07:56 10° ESE daylight
01 Feb - 15:40:45 10° W 15:45:07 38° SSW 15:49:31 10° SE daylight
01 Feb - 17:25:41 10° SW 17:26:21 10° SW 17:27:03 10° SW daylight
02 Feb - 09:19:55 10° S 09:23:19 20° SE 09:26:45 10° E daylight
02 Feb - 11:00:20 10° WSW 11:04:54 59° SSE 11:09:32 10° E daylight
02 Feb - 12:42:20 10° W 12:47:02 89° S 12:51:47 10° E daylight
02 Feb - 14:24:32 10° W 14:29:12 61° SSW 14:33:53 10° ESE daylight
02 Feb - 16:07:12 10° W 16:10:50 22° SW 16:14:29 10° SSE daylight
03 Feb - 09:44:47 10° SW 09:49:00 36° SSE 09:53:17 10° E daylight
03 Feb - 11:26:14 10° WSW 11:30:54 80° S 11:35:37 10° E daylight
03 Feb - 13:08:25 10° W 13:13:07 82° S 13:17:52 10° ESE daylight
03 Feb - 14:50:41 10° W 14:55:05 40° SSW 14:59:31 10° SE daylight
03 Feb - 16:34:58 10° WSW 16:36:22 11° SW 16:37:46 10° SSW daylight
04 Feb - 08:30:04 10° S 08:33:19 19° SE 08:36:36 10° E daylight
04 Feb - 10:10:19 10° WSW 10:14:52 57° SSE 10:19:28 10° E daylight
04 Feb - 11:52:18 10° W 11:56:59 89° S 12:01:43 10° E daylight
04 Feb - 13:34:29 10° W 13:39:09 64° SSW 13:43:50 10° ESE daylight
04 Feb - 15:17:06 10° W 15:20:49 23° SW 15:24:33 10° SSE daylight
05 Feb - 08:54:50 10° SSW 08:58:59 34° SSE 09:03:11 10° E daylight
05 Feb - 10:36:12 10° WSW 10:40:51 78° SSE 10:45:33 10° E daylight
05 Feb - 12:18:23 10° W 12:23:04 84° S 12:27:48 10° E daylight
05 Feb - 14:00:38 10° W 14:05:03 42° SSW 14:09:30 10° SE daylight
05 Feb - 15:44:34 10° WSW 15:46:22 12° SW 15:48:12 10° SSW daylight
06 Feb - 07:40:14 10° S 07:43:19 18° SE 07:46:26 10° E daylight
06 Feb - 09:20:19 10° SW 09:24:50 54° SSE 09:29:23 10° E daylight
06 Feb - 11:02:15 10° W 11:06:56 88° S 11:11:38 10° E daylight
06 Feb - 12:44:28 10° W 12:49:06 66° SSW 12:53:47 10° ESE daylight
06 Feb - 14:26:59 10° W 14:30:48 25° SW 14:34:38 10° SSE daylight
